Погода в Образцово-Травине

Россия / Астраханская область     45°57′43″N   48°00′12″E
темп.,
°C
ветер,
м/с
пор.,
м/с
влажн.,
%
обл.,
%
осадки,
мм/ч
давл.,
гПа
погр.,
м
19 сентября, вс
вс1901:00+13в34706 0.0 101951
04:00+12в35675 0.0 102075
07:00+12всв4766100 0.0 1020131
10:00+19вюв7843100 0.0 10201232
13:00+21вюв8936100 0.0 10191271
16:00+20вюв893775 0.0 10181110
19:00+16в6105774 0.0 1018470
22:00+15в512655 0.0 1017328
20 сентября, пн
пн2001:00+15в512679 0.0 1016347
04:00+15всв511755 0.0 1015247
07:00+16в5117598 0.0 1015281
10:00+23вюв674296 0.0 1015722
13:00+26юв543746 0.0 10141354
16:00+24вюв7653100 0.0 1013833
19:00+20вюв346980 0.0 101477
22:00+19в3473100 0.0 1015107
21 сентября, вт
вт2101:00+18вюв1269100 0.1 101651
04:00+19сз1269100 0.1 101624
07:00+19св236847 0.1 101574
10:00+24св444841 0.1 1016721
13:00+27в663143 0.0 10151815
16:00+25вюв7736100 0.0 10141043
19:00+19вюв485394 0.0 1014238
22:00+17в397198 0.0 1014191
22 сентября, ср
ср2201:00+17вюв3775100 0.0 1014135
04:00+16вюв337880 0.0 101340
07:00+17в2273100 0.0 101342
10:00+22ююз134595 0.0 1014543
13:00+27в2327100 0.0 10131670
16:00+24вюв6632100 0.0 1013689
19:00+19в4844100 0.0 1014288
22:00+19св3651100 0.0 1014173
23 сентября, чт
чт2301:00+19з3345100 0.0 101488
04:00+16ссв5972100 0.9 1013274
07:00+17всв51071100 0.0 1012314
10:00+20вюв7956100 0.0 1013617
13:00+24юв1010485 0.0 10121251
16:00+22вюв910325 0.0 10121058
19:00+19в61150100 0.0 1012386
22:00+18в61256100 0.0 1010403